Location: Fort Worth, Tx
(32.7431°N, 97.3695°W)
Time: 12:38:42
(UTC-04:00)

Vanguard 1 Rocket - Pass Details

Date: 23 February 2024
Orbit: 652 x 4220 km, 34.3° (Epoch: 11 April)

Event Time Altitude Azimuth Distance (km) Brightness Sun altitude
Rises 05:48:37 0° 201° (SSW) 8,434 12.1 -29.3°
Reaches altitude 10° 05:56:24 10° 190° (S) 7,383 11.8 -27.7°
Maximum altitude 06:14:40 27° 143° (SE) 5,290 11.5 -23.9°
Drops below altitude 10° 06:27:52 10° 94° (E) 5,396 12.5 -21.1°
Sets 06:32:10 0° 83° (E) 5,913 13.1 -20.2°
